Hourly Data Report for May 30, 2019

MIRAMICHI RCS
NEW BRUNSWICK
Current Station Operator: ECCC - MSC

47°00'34.000" N
65°27'54.000" W
33.00 m
8100989
71744
ACQ

Download Data

Hourly Data (May 2019)
Hourly Data Report for May 30, 2019
TIME
LST
Temp Definition
°C
Dew Point Definition
°C
Rel Hum Definition
%
Precip. Amount Definition
mm

Wind Dir Definition
10's deg

Wind Spd Definition
km/h
Visibility Definition
km
Stn Press Definition
kPa
Hmdx Definition


Wind Chill Definition


Weather Definition


00:00 8.6 5.2 80 0.0 18 3   100.29     LegendNANA
01:00 7.5 5.2 86 0.0 21 3   100.30     LegendNANA
02:00 7.0 4.8 86 0.0 16 6   100.24     LegendNANA
03:00 6.3 4.9 91 0.0 20 4   100.22     LegendNANA
04:00 6.2 4.8 91 0.0 21 5   100.25     LegendNANA
05:00 6.7 5.4 91 0.0 21 8   100.28     LegendNANA
06:00 8.5 6.4 87 0.0 21 11   100.32     LegendNANA
07:00 9.6 6.7 82 0.0 22 15   100.38     LegendNANA
08:00 12.3 7.4 72 0.0 21 15   100.33     LegendNANA
09:00 14.0 7.5 65 0.0 24 18   100.38     LegendNANA
10:00 14.4 7.5 63 0.0 22 16   100.32     LegendNANA
11:00 16.3 7.7 57 0.0 19 21   100.20     LegendNANA
12:00 17.3 7.7 53 0.0 22 15   100.20     LegendNANA
13:00 17.8 7.8 52 0.0 21 18   100.20     LegendNANA
14:00 18.8 7.5 48 0.0 22 16   100.14     LegendNANA
15:00 19.2 7.5 47 0.0 18 17   100.08     LegendNANA
16:00 19.2 7.8 47 0.0 20 22   100.08     LegendNANA
17:00 18.9 7.9 49 0.0 18 20   100.02     LegendNANA
18:00 18.1 8.1 52 0.0 20 27   99.99     LegendNANA
19:00 17.0 8.1 56 0.0 18 25   100.00     LegendNANA
20:00 15.2 8.1 62 0.0 20 20   100.02     LegendNANA
21:00 13.7 7.8 68 0.0 18 19   100.04     LegendNANA
22:00 12.5 7.2 71 0.0 19 19   100.02     LegendNANA
23:00 11.6 7.3 75 0.0 20 20   100.02     LegendNANA

Notes on Data Quality.

Legend

  • E = Estimated
  • M = Missing
  • NA = Not Available*
  • [empty] = Indicates an unobserved value
Date modified: